786  
ASUS46 KLOX 051714  
RWRCA  
 
SOUTHERN CALIFORNIA WEATHER ROUNDUP  
NATIONAL WEATHER SERVICE OXNARD CALIFORNIA  
900 AM PST THU DEC 05 2019  
 
NOTE: "FAIR" INDICATES FEW OR NO CLOUDS BELOW 12,000 FEET WITH NO  
SIGNIFICANT WEATHER AND/OR S TO VISIBILITY
.  
 
- STATIONS PRECEEDED BY AN ASTERISK (*) ARE NOT NWS OR FAA  
STATIONS AND ARE NOT SUBJECT TO NWS AND FAA QUALITY CONTROL.
 
 
CAZ041-042-087-051800-  
LA AND ORANGE COUNTY COASTAL AREAS  
 
 
CITY SKY/WX TMP DP RH WIND PRES REMARKS
 
L.A. DOWNTOWN MOSUNNY 61 50 67 E3 30.16R  
L.A. AIRPORT PTSUNNY 60 53 77 E7 30.16R  
LONG BEACH SUNNY 58 53 84 NE3 30.16R  
 
CITY SKY/WX TMP DP RH WIND PRES REMARKS
 
FULLERTON SUNNY 59 53 80 E7 30.15R  
HAWTHORNE SUNNY 60 53 77 VRB3 30.16R  
*LEO CARRILLO N/A 62 54 75 E7 N/A  
*LOS ALAMITOS MOSUNNY 56 56 100 NE3 30.15R  
*REDONDO BEACH N/A 57 55 93 CALM 30.14R  
SANTA ANA MOSUNNY 61 50 67 E5 30.15R  
STA MONICA APT SUNNY 59 53 80 VRB3 30.16R  
TORRANCE MOSUNNY 57 55 94 CALM 30.14S  
*UCLA N/A 61 52 72 E6 30.12S  
 

 
 
CAZ547-548-048-051800-  
LA COUNTY VALLEYS AND INLAND EMPIRE  
 
 
CITY SKY/WX TMP DP RH WIND PRES REMARKS
 
BURBANK MOSUNNY 56 51 84 CALM 30.15R  
VAN NUYS MOSUNNY 57 52 83 CALM 30.15R  
 
CITY SKY/WX TMP DP RH WIND PRES REMARKS
 
CORONA AIRPORT MOSUNNY 55 52 89 CALM 30.17R  
*CHATSWORTH N/A 56 52 86 E2 30.20S  
CHINO PTSUNNY 56 51 84 E3 30.17R FOG  
*CLAREMONT N/A 54 53 97 CALM N/A  
MARCH AFB FOG 49 49 100 CALM 30.16R VSB 1/2  
*NORTHRIDGE N/A 55 50 82 E1 N/A  
ONTARIO PTSUNNY 58 50 75 CALM 30.16R  
POMONA MOSUNNY 54 52 94 VRB5 30.16S  
RIVERSIDE MOSUNNY 55 50 83 NE5 30.16S  
SAN BERNARDINO PTSUNNY 55 46 71 CALM 30.17R  
*SAN RAFAEL HI N/A 56 52 85 E7 N/A  
*SAUGUS N/A 53 50 89 CALM N/A  
*WHITEMAN AP SUNNY 57 46 67 CALM 30.19R  
*WHITTIER HILL N/A 54 54 100 NE7 N/A  
 

 
 
CAZ054-055-051800-  
LA AND SAN BERNARDINO COUNTY MOUNTAINS  
 
 
CITY SKY/WX TMP DP RH WIND PRES REMARKS
 
*ACTON N/A 46 46 100 N3 N/A  
*BIG BEAR AIRP SUNNY 32 32 100 CALM 30.19R  
*BIG PINES N/A 43 31 63 CALM N/A  
*CHILAO N/A 45 38 76 CALM N/A  
SANDBERG PTSUNNY 45 41 86 S7 30.16R  
*WARM SPRINGS N/A 46 46 100 CALM N/A  
 

 
 
CAZ028-029-059-060-099-051800-  
ANTELOPE VALLEY AND SURROUNDING AREAS  
 
 
CITY SKY/WX TMP DP RH WIND PRES REMARKS
 
LANCASTER PTSUNNY 45 43 93 CALM 30.19R  
PALMDALE PTSUNNY 46 42 86 E5 30.17R  
*POPPY PARK N/A 46 44 91 CALM N/A  
 
CITY SKY/WX TMP DP RH WIND PRES REMARKS
 
29 PALMS CLOUDY 49 46 90 W8 30.25R  
BARSTOW/DAGGET CLOUDY 51 45 79 CALM 30.19R  
BISHOP SUNNY 39 34 82 NW8 30.17S WCI 33  
CHINA LAKE MOSUNNY 42 42 100 CALM 30.19R  
EDWARDS AFB PTSUNNY 42 41 97 N6 30.17R  
MOJAVE MOSUNNY 46 45 93 NE7G13 30.18R  
NEEDLES SUNNY 56 51 84 CALM 30.17R  
 

 
 
CAZ039-040-051800-  
VENTURA AND SANTA BARBARA COUNTY COAST  
 
 
CITY SKY/WX TMP DP RH WIND PRES REMARKS
 
CAMARILLO CLOUDY 62 52 69 NE7 30.14R  
NWS OXNARD N/A 58 49 70 NW1 30.12R  
OXNARD AIRPORT CLOUDY 59 53 80 NE8 30.14R  
*POINT MUGU PTSUNNY 61 53 75 NE7 30.14R  
SBA APT/GOLETA CLOUDY 61 52 72 E7 30.12R  
*SANTA BARBARA N/A 61 52 71 SW2 30.20S  
*VENTURA N/A 57 52 82 N6G12 N/A  
 

 
 
CAZ044-045-051800-  
VENTURA COUNTY VALLEYS  
 
 
CITY SKY/WX TMP DP RH WIND PRES REMARKS
 
*SIMI VALLEY N/A 58 52 79 E1 30.13R  
*THOUSAND OAKS N/A 59 51 77 E2 30.15S  
*WESTLAKE VILL N/A 55 50 86 CALM 30.13S  
*OJAI N/A 55 53 94 CALM 30.10S  
*FILLMORE N/A 55 53 94 CALM 30.19S  
 

 
 
CAZ053-051800-  
VENTURA COUNTY MOUNTAINS  
 
 
CITY SKY/WX TMP DP RH WIND PRES REMARKS
 
*LOCKWOOD VLY N/A 34 34 100 MISG N/A  
*FRAZIER MTN N/A 33 28 79 W3 30.23R  
*ROSE VALLEY N/A 46 45 93 NE1 N/A  
 

 
 
CAZ034-035-036-051800-  
CENTRAL COAST AND SANTA YNEZ VALLEY  
 
 
CITY SKY/WX TMP DP RH WIND PRES REMARKS
 
SAN LUIS OBISP CLOUDY 57 50 77 SE3 30.10R  
SANTA MARIA PTSUNNY 57 48 72 E3 30.10R  
 
CITY SKY/WX TMP DP RH WIND PRES REMARKS
 
*LOMPOC CLOUDY 60 54 80 SE6 30.11R  
*PISMO BEACH N/A 59 46 60 SE1 30.11R  
*SANTA YNEZ PTSUNNY 59 50 72 E17G23 30.11R  
 

 
 
CAZ037-038-051-051800-  
SAN LUIS OBISPO COUNTY INTERIOR AND CUYAMA VALLEY  
 
 
CITY SKY/WX TMP DP RH WIND PRES REMARKS
 
*CUYAMA N/A 47 43 86 CALM 30.08R  
PASO ROBLES SUNNY 54 48 80 E5 30.11R  
 

 
 
CAZ032-033-061-051800-  
SOUTHERN DESERTS  
 
 
CITY SKY/WX TMP DP RH WIND PRES REMARKS
 
BLYTHE PTSUNNY 51 49 92 SE3 30.17R  
IMPERIAL PTSUNNY 52 51 97 S3 30.15R  
PALM SPRINGS MOSUNNY 58 51 78 VRB3 30.16R  
THERMAL MOSUNNY 57 52 83 N5 30.14R  
 

 
 
ELSEWHERE ACROSS THE WESTERN UNITED STATES AND MEXICO  
 
 
CITY SKY/WX TMP DP RH WIND PRES REMARKS
 
DEATH VALLEY, N/A 57 49 73 CALM N/A  
DENVER, CO CLOUDY 38 33 82 S6 29.98R WCI 33  
GRAND CANYON, CLOUDY 35 34 96 SW12 30.17R FOG WCI 27  
HONOLULU, HI MOCLDY 75 63 64 NE5 29.98R  
KAHULUI, MAUI PTCLDY 75 66 73 NE9 29.99R  
LAKE TAHOE, CA SUNNY 31 30 96 S3 30.12R  
LAS VEGAS, NV MOSUNNY 53 43 68 SE6 30.13R  
MAMMOTH LAKES, FAIR 18 18 98 CALM 30.17R  
MEXICO CITY, M SUNNY 64 36 34 NE3 30.41F  
PHOENIX, AZ MOSUNNY 62 51 67 SW5 30.12R  
PORTLAND, OR PTSUNNY 43 38 82 CALM 30.04R  
RENO, NV FOG 32 32 100 S3 30.16R VSB 1/8  
SALT LAKE CITY LGT RAIN 35 34 96 CALM 30.12R VSB 1  
SAN DIEGO, CA PTSUNNY 62 58 86 SE3 30.16R  
SAN FRANCISCO, CLOUDY 55 51 86 NE8 30.08R  
SAN JOSE, CA PTSUNNY 54 51 90 CALM 30.08R  
SEATTLE, WA CLOUDY 46 42 86 NE5 30.02R FOG  
TIJUANA, MEX PTSUNNY 57 54 88 SE3 30.16R  
 

 
 
STATION/POSITION TIME TEMP WIND PRES VSBY WAVE
 
AIR SEA DIR/SP/G HT/PER  
(UTC) (F) (DEG/KT/KT) (MB) (MI) (FT/S)  
WEST SANTA BARBA 1700 59 60 150/ 10/ 12 1020.0  
EAST SANTA BARBA 1700 60 61 120/ 12/ 16 1020.7  
SANTA MONICA BAY 1650 60 62 80/ 12/ 16 1020.9R 3/13  
SAN CLEMENTE BAS 1700 62 63 70/ 4/ 6 1020.7  
 
CLICK HERE TO GO TO PREVIOUS BULLETINS.

The Nexlab CA Page Main Text Page